Location: El Boquerón
(3.1908°N, 75.6036°W)
Time: 05:37:47
(UTC+00:00)

Cosmos 2263 Rocket - Visible Passes

Search period start: 06 June 2026 00:00
Search period end: 16 June 2026 00:00
Orbit: 824 x 845 km, 71.0° (Epoch: 5 June)

Date Brightness Start Highest point End Pass type
(mag) Time Alt. Az. Time Alt. Az. Time Alt. Az.
6 Jun 4.4 01:18:13 10° WSW 01:22:27 22° WNW 01:26:40 10° NNW visible
7 Jun 4.3 01:00:45 10° SW 01:05:15 25° WNW 01:09:45 10° NNW visible
8 Jun 4.2 00:43:20 10° SW 00:48:04 28° WNW 00:52:47 10° NNW visible
9 Jun 4.0 00:25:56 10° SW 00:30:52 32° WNW 00:35:47 10° NNW visible
10 Jun 3.8 00:08:35 10° SW 00:13:41 36° WNW 00:18:45 10° N visible
10 Jun 3.6 23:51:15 10° SW 23:56:29 41° WNW 00:01:42 10° N visible
11 Jun 3.4 23:33:57 10° SSW 23:39:18 47° WNW 23:44:37 10° N visible
12 Jun 3.4 10:31:36 10° N 10:37:00 50° ENE 10:42:26 10° SSE visible
13 Jun 3.6 10:14:30 10° N 10:19:48 43° ENE 10:25:08 10° SE visible
14 Jun 3.8 09:57:27 10° N 10:02:37 38° ENE 10:07:49 10° SE visible
15 Jun 4.0 09:40:24 10° N 09:45:25 34° ENE 09:50:28 10° SE visible
